494P/PanSTARRS (2024)

Japanese version
Home page
Updated on November 30, 2024

---------------------------------------------------------------------

* Profile

Designation 494P/2024 N2
Discovery Date July 3, 2024
Magnitude 21.1 mag
Discoverer Pan-STARRS 1 telescope (Haleakala)

* Pictures

* Orbital Elements

Epoch 2024 Oct. 17.0 TT = JDT 2460600.5
T 2024 May 31.04652 TT                                  Rudenko
q   2.4403710            (2000.0)            P               Q
n   0.13329517     Peri.   48.88289     +0.39929581     +0.90854943
a   3.7954194      Node   245.04576     -0.87655171     +0.33902462
e   0.3570220      Incl.    7.78976     -0.26873771     +0.24413160
P   7.39
>From 41 observations 2009 June 27-2024 Aug. 14, mean residual 0".2.

* Magnitudes Graph

        m1 = 15.5 + 5 log d + 10.0 log r

---------------------------------------------------------------------

The orbital elements are published on M.P.E.C. 2024-Q20.
The magnitudes graphs are made with Comet for Windows.

---------------------------------------------------------------------

Copyright(C) Seiichi Yoshida (comet@aerith.net). All rights reserved.